N7542S SPJC-SCDA

Flight info

Callsign N7542S
Flight time 3h 15m
Altitude 7000
Route ASOXI UL550 ALDAX UT210 LOKIR LOKIR6B
Aircraft AEST/L-SDFGRY/S

Departure

Time 2026-04-18 03:22
Airport Jorge Chávez International Airport (SPJC)

Arrival

Time 2026-04-18 06:37
Airport Diego Aracena International Airport (SCDA)
Time Latitude Longitude Altitude Speed Heading
2026-04-18 02:21 -12.01804 -77.11318 75 ft 0 kts 136°
2026-04-18 03:02 -12.01818 -77.11320 71 ft 0 kts 264°
2026-04-18 03:02 -12.01810 -77.11329 62 ft 5 kts 339°
2026-04-18 03:02 -12.01782 -77.11340 70 ft 0 kts 315°
2026-04-18 03:04 -12.01771 -77.11356 73 ft 6 kts 287°
2026-04-18 03:05 -12.01805 -77.11396 71 ft 9 kts 200°
2026-04-18 03:05 -12.01863 -77.11384 67 ft 8 kts 157°
2026-04-18 03:05 -12.01871 -77.11380 72 ft 0 kts 155°
2026-04-18 03:06 -12.01885 -77.11374 72 ft 7 kts 154°
2026-04-18 03:06 -12.01955 -77.11338 74 ft 14 kts 154°
2026-04-18 03:07 -12.02049 -77.11290 76 ft 16 kts 154°
2026-04-18 03:07 -12.02152 -77.11240 80 ft 19 kts 154°
2026-04-18 03:07 -12.02275 -77.11179 83 ft 14 kts 154°
2026-04-18 03:07 -12.02353 -77.11140 86 ft 11 kts 155°
2026-04-18 03:08 -12.02420 -77.11111 86 ft 12 kts 163°
2026-04-18 03:08 -12.02455 -77.11120 87 ft 8 kts 262°
2026-04-18 03:08 -12.02473 -77.11193 87 ft 17 kts 243°
2026-04-18 03:08 -12.02533 -77.11317 85 ft 21 kts 242°
2026-04-18 03:09 -12.02532 -77.11440 76 ft 21 kts 334°
2026-04-18 03:09 -12.02402 -77.11504 74 ft 21 kts 334°
2026-04-18 03:09 -12.02267 -77.11570 66 ft 21 kts 335°
2026-04-18 03:09 -12.02127 -77.11639 68 ft 23 kts 334°
2026-04-18 03:10 -12.01980 -77.11710 58 ft 24 kts 334°
2026-04-18 03:10 -12.01853 -77.11774 63 ft 17 kts 328°
2026-04-18 03:10 -12.01858 -77.11887 57 ft 18 kts 244°
2026-04-18 03:10 -12.01916 -77.12004 56 ft 18 kts 242°
2026-04-18 03:11 -12.01971 -77.12119 53 ft 18 kts 244°
2026-04-18 03:11 -12.02025 -77.12230 50 ft 17 kts 243°
2026-04-18 03:11 -12.02078 -77.12343 46 ft 18 kts 244°
2026-04-18 03:11 -12.02127 -77.12459 42 ft 18 kts 276°
2026-04-18 03:12 -12.02032 -77.12531 40 ft 18 kts 333°
2026-04-18 03:12 -12.01913 -77.12591 39 ft 22 kts 336°
2026-04-18 03:12 -12.01761 -77.12664 41 ft 26 kts 334°
2026-04-18 03:12 -12.01589 -77.12746 37 ft 28 kts 335°
2026-04-18 03:13 -12.01419 -77.12831 35 ft 27 kts 335°
2026-04-18 03:13 -12.01257 -77.12909 33 ft 26 kts 334°
2026-04-18 03:13 -12.01097 -77.12976 33 ft 24 kts 334°
2026-04-18 03:13 -12.00947 -77.13052 32 ft 24 kts 333°
2026-04-18 03:14 -12.00801 -77.13125 32 ft 23 kts 336°
2026-04-18 03:14 -12.00677 -77.13183 31 ft 10 kts 333°
2026-04-18 03:14 -12.00620 -77.13228 30 ft 12 kts 266°
2026-04-18 03:14 -12.00630 -77.13245 30 ft 0 kts 194°
2026-04-18 03:17 -12.00643 -77.13267 30 ft 10 kts 270°
2026-04-18 03:17 -12.00645 -77.13285 29 ft 0 kts 250°
2026-04-18 03:20 -12.00663 -77.13328 28 ft 10 kts 238°
2026-04-18 03:20 -12.00720 -77.13350 29 ft 8 kts 159°
2026-04-18 03:20 -12.00767 -77.13328 30 ft 7 kts 155°
2026-04-18 03:21 -12.00813 -77.13306 31 ft 8 kts 154°
2026-04-18 03:21 -12.00903 -77.13261 32 ft 32 kts 154°
2026-04-18 03:21 -12.01273 -77.13079 31 ft 83 kts 153°
2026-04-18 03:21 -12.01852 -77.12790 77 ft 96 kts 155°
2026-04-18 03:22 -12.02515 -77.12483 232 ft 112 kts 157°
2026-04-18 03:22 -12.03258 -77.12167 462 ft 121 kts 158°
2026-04-18 03:22 -12.04057 -77.11840 753 ft 125 kts 158°
2026-04-18 03:22 -12.04870 -77.11464 1003 ft 132 kts 151°
2026-04-18 03:23 -12.05667 -77.10988 1276 ft 135 kts 152°
2026-04-18 03:23 -12.06221 -77.10696 1445 ft 136 kts 154°
2026-04-18 03:23 -12.07083 -77.10243 1621 ft 143 kts 152°
2026-04-18 03:23 -12.07954 -77.09716 1796 ft 148 kts 151°
2026-04-18 03:24 -12.08860 -77.09176 1964 ft 152 kts 149°
2026-04-18 03:24 -12.09780 -77.08595 2069 ft 161 kts 149°
2026-04-18 03:24 -12.10793 -77.08064 2134 ft 163 kts 156°
2026-04-18 03:24 -12.11859 -77.07617 2249 ft 168 kts 157°
2026-04-18 03:25 -12.12936 -77.07166 2410 ft 169 kts 156°
2026-04-18 03:25 -12.14014 -77.06663 2512 ft 173 kts 152°
2026-04-18 03:25 -12.15109 -77.06121 2601 ft 177 kts 155°
2026-04-18 03:25 -12.16129 -77.05416 2777 ft 175 kts 134°
2026-04-18 03:26 -12.16878 -77.04493 3112 ft 166 kts 128°
2026-04-18 03:26 -12.17589 -77.03560 3290 ft 167 kts 126°
2026-04-18 03:26 -12.18294 -77.02603 3463 ft 170 kts 127°
2026-04-18 03:26 -12.19051 -77.01675 3670 ft 170 kts 132°
2026-04-18 03:27 -12.19876 -77.00811 3881 ft 170 kts 134°
2026-04-18 03:27 -12.20702 -76.99936 4044 ft 173 kts 132°
2026-04-18 03:27 -12.21516 -76.99025 4230 ft 174 kts 133°
2026-04-18 03:27 -12.22381 -76.98168 4437 ft 173 kts 135°
2026-04-18 03:28 -12.23239 -76.97283 4604 ft 177 kts 133°
2026-04-18 03:28 -12.24172 -76.96449 4742 ft 184 kts 149°
2026-04-18 03:28 -12.25248 -76.95756 5041 ft 178 kts 146°
2026-04-18 03:28 -12.26245 -76.95053 5377 ft 173 kts 145°
2026-04-18 03:29 -12.27226 -76.94332 5525 ft 180 kts 143°
2026-04-18 03:29 -12.28237 -76.93560 5712 ft 183 kts 146°
2026-04-18 03:29 -12.29305 -76.92880 5983 ft 179 kts 151°
2026-04-18 03:29 -12.30388 -76.92267 6209 ft 178 kts 149°
2026-04-18 03:30 -12.31428 -76.91554 6344 ft 182 kts 146°
2026-04-18 03:30 -12.32474 -76.90832 6536 ft 180 kts 147°
2026-04-18 03:30 -12.33507 -76.90119 6730 ft 179 kts 146°
2026-04-18 03:30 -12.34548 -76.89402 6879 ft 182 kts 146°
2026-04-18 03:31 -12.35601 -76.88675 7097 ft 181 kts 146°
2026-04-18 03:31 -12.36618 -76.87932 7352 ft 178 kts 144°
2026-04-18 03:31 -12.37621 -76.87185 7565 ft 178 kts 146°
2026-04-18 03:31 -12.38656 -76.86465 7709 ft 182 kts 146°
2026-04-18 03:32 -12.39691 -76.85717 7910 ft 182 kts 144°
2026-04-18 03:32 -12.40736 -76.84987 8121 ft 182 kts 151°
2026-04-18 03:32 -12.41871 -76.84383 8257 ft 185 kts 153°
2026-04-18 03:32 -12.42990 -76.83740 8448 ft 184 kts 147°
2026-04-18 03:33 -12.44032 -76.82988 8646 ft 183 kts 143°
2026-04-18 03:33 -12.45034 -76.82182 8809 ft 183 kts 140°
2026-04-18 03:33 -12.46082 -76.81429 8927 ft 186 kts 147°
2026-04-18 03:33 -12.47154 -76.80700 9077 ft 187 kts 147°
2026-04-18 03:34 -12.48266 -76.79951 9028 ft 195 kts 147°
2026-04-18 03:34 -12.49395 -76.79175 9051 ft 195 kts 146°
2026-04-18 03:34 -12.50514 -76.78385 9043 ft 195 kts 146°
2026-04-18 03:34 -12.51625 -76.77596 9040 ft 194 kts 146°
2026-04-18 03:35 -12.52733 -76.76819 9040 ft 193 kts 146°
2026-04-18 03:35 -12.53858 -76.76045 9045 ft 196 kts 146°
2026-04-18 03:35 -12.55002 -76.75261 9027 ft 198 kts 147°
2026-04-18 03:35 -12.56146 -76.74474 9034 ft 199 kts 146°
2026-04-18 03:36 -12.57295 -76.73677 9036 ft 199 kts 146°
2026-04-18 03:36 -12.58427 -76.72886 9035 ft 200 kts 146°
2026-04-18 03:36 -12.59583 -76.72084 9037 ft 201 kts 146°
2026-04-18 03:36 -12.60743 -76.71278 9024 ft 202 kts 146°
2026-04-18 03:37 -12.61901 -76.70477 9040 ft 201 kts 146°
2026-04-18 03:37 -12.63065 -76.69672 9037 ft 202 kts 146°
2026-04-18 03:37 -12.64230 -76.68864 9036 ft 202 kts 146°
2026-04-18 03:37 -12.65394 -76.68054 9038 ft 202 kts 146°
2026-04-18 03:38 -12.66555 -76.67246 9033 ft 202 kts 146°
2026-04-18 03:38 -12.67719 -76.66440 9036 ft 202 kts 146°
2026-04-18 03:38 -12.68887 -76.65632 9032 ft 203 kts 146°
2026-04-18 03:38 -12.70050 -76.64823 9057 ft 202 kts 146°
2026-04-18 03:39 -12.71211 -76.64016 9060 ft 202 kts 146°
2026-04-18 03:39 -12.72376 -76.63209 9037 ft 202 kts 146°
2026-04-18 03:39 -12.73542 -76.62400 9041 ft 202 kts 146°
2026-04-18 03:39 -12.74708 -76.61589 9038 ft 202 kts 146°
2026-04-18 03:40 -12.75872 -76.60779 9038 ft 202 kts 146°
2026-04-18 03:40 -12.77102 -76.60092 9046 ft 202 kts 160°
2026-04-18 03:40 -12.78432 -76.59627 9050 ft 202 kts 162°
2026-04-18 03:40 -12.79760 -76.59173 9044 ft 201 kts 161°
2026-04-18 03:41 -12.81067 -76.58674 9038 ft 201 kts 159°
2026-04-18 03:41 -12.82357 -76.58139 9041 ft 199 kts 158°
2026-04-18 03:41 -12.83646 -76.57599 9041 ft 201 kts 158°
2026-04-18 03:41 -12.84942 -76.57070 9041 ft 199 kts 159°
2026-04-18 03:42 -12.86232 -76.56561 9025 ft 199 kts 159°
2026-04-18 03:42 -12.87525 -76.56054 9020 ft 199 kts 159°
2026-04-18 03:42 -12.88822 -76.55539 9024 ft 200 kts 159°
2026-04-18 03:42 -12.90121 -76.55013 9025 ft 201 kts 158°
2026-04-18 03:43 -12.91418 -76.54486 9005 ft 201 kts 159°
2026-04-18 03:43 -12.92723 -76.53959 9012 ft 202 kts 159°
2026-04-18 03:43 -12.94028 -76.53437 9016 ft 200 kts 159°
2026-04-18 03:43 -12.95337 -76.52915 8986 ft 202 kts 159°
2026-04-18 03:44 -12.96640 -76.52394 8994 ft 201 kts 159°
2026-04-18 03:44 -12.97940 -76.51871 9006 ft 200 kts 159°
2026-04-18 03:44 -12.99239 -76.51346 9008 ft 202 kts 159°
2026-04-18 03:44 -13.00553 -76.50819 8938 ft 205 kts 159°
2026-04-18 03:45 -13.01895 -76.50280 8933 ft 206 kts 159°
2026-04-18 03:45 -13.03212 -76.49752 8983 ft 205 kts 159°
2026-04-18 03:45 -13.04537 -76.49219 9019 ft 204 kts 159°
2026-04-18 03:45 -13.05859 -76.48687 9019 ft 205 kts 159°
2026-04-18 03:46 -13.07187 -76.48153 9017 ft 205 kts 159°
2026-04-18 03:46 -13.08517 -76.47619 9017 ft 205 kts 159°
2026-04-18 03:46 -13.09848 -76.47084 9022 ft 205 kts 159°
2026-04-18 03:46 -13.11178 -76.46549 9020 ft 206 kts 159°
2026-04-18 03:47 -13.12510 -76.46014 9023 ft 206 kts 159°
2026-04-18 03:47 -13.13841 -76.45478 9007 ft 204 kts 159°
2026-04-18 03:47 -13.15157 -76.44948 9004 ft 204 kts 159°
2026-04-18 03:47 -13.16474 -76.44419 9007 ft 202 kts 159°
2026-04-18 03:48 -13.17785 -76.43892 9010 ft 202 kts 159°
2026-04-18 03:48 -13.19097 -76.43365 9006 ft 203 kts 159°
2026-04-18 03:48 -13.20414 -76.42834 9006 ft 203 kts 159°
2026-04-18 03:48 -13.21732 -76.42303 9008 ft 203 kts 159°
2026-04-18 03:49 -13.23044 -76.41774 9007 ft 202 kts 159°
2026-04-18 03:49 -13.24354 -76.41247 9007 ft 202 kts 159°
2026-04-18 03:49 -13.25666 -76.40720 9006 ft 203 kts 159°
2026-04-18 03:49 -13.26981 -76.40191 9007 ft 203 kts 159°
2026-04-18 03:50 -13.28297 -76.39660 8997 ft 203 kts 159°
2026-04-18 03:50 -13.29608 -76.39131 8993 ft 203 kts 159°
2026-04-18 03:50 -13.30921 -76.38602 8995 ft 203 kts 159°
2026-04-18 03:50 -13.32239 -76.38074 8998 ft 203 kts 159°
2026-04-18 03:51 -13.33559 -76.37543 9002 ft 203 kts 159°
2026-04-18 03:51 -13.34873 -76.37011 8995 ft 203 kts 159°
2026-04-18 03:51 -13.36187 -76.36480 9001 ft 202 kts 159°
2026-04-18 03:51 -13.37504 -76.35950 9005 ft 204 kts 159°
2026-04-18 03:52 -13.38823 -76.35419 8999 ft 204 kts 159°
2026-04-18 03:52 -13.40142 -76.34888 9007 ft 204 kts 159°
2026-04-18 03:52 -13.41461 -76.34356 8993 ft 204 kts 159°
2026-04-18 03:52 -13.42765 -76.33830 8991 ft 204 kts 159°
2026-04-18 03:53 -13.44087 -76.33296 9000 ft 204 kts 159°
2026-04-18 03:53 -13.45423 -76.32757 8993 ft 203 kts 159°
2026-04-18 03:53 -13.46722 -76.32234 8994 ft 204 kts 159°
2026-04-18 03:53 -13.48036 -76.31704 8995 ft 203 kts 159°
2026-04-18 03:54 -13.49354 -76.31174 8992 ft 204 kts 159°
2026-04-18 03:54 -13.50674 -76.30640 8996 ft 204 kts 159°
2026-04-18 03:54 -13.51992 -76.30107 8995 ft 204 kts 159°
2026-04-18 03:54 -13.53310 -76.29574 8995 ft 204 kts 159°
2026-04-18 03:55 -13.54631 -76.29041 8994 ft 204 kts 159°
2026-04-18 03:55 -13.55950 -76.28510 8991 ft 204 kts 159°
2026-04-18 03:55 -13.57269 -76.27978 8994 ft 204 kts 159°
2026-04-18 03:55 -13.58590 -76.27445 8994 ft 204 kts 159°
2026-04-18 03:56 -13.59910 -76.26911 8993 ft 204 kts 159°
2026-04-18 03:56 -13.61228 -76.26378 8996 ft 204 kts 159°
2026-04-18 03:56 -13.62548 -76.25845 8997 ft 204 kts 159°
2026-04-18 03:56 -13.63868 -76.25312 8997 ft 204 kts 159°
2026-04-18 03:57 -13.66510 -76.24245 8999 ft 204 kts 159°
2026-04-18 03:57 -13.67831 -76.23711 8998 ft 204 kts 159°
2026-04-18 03:57 -13.69154 -76.23176 8997 ft 204 kts 159°
2026-04-18 03:58 -13.70476 -76.22642 8997 ft 204 kts 159°
2026-04-18 03:58 -13.71796 -76.22108 8998 ft 204 kts 159°
2026-04-18 03:58 -13.73118 -76.21574 8998 ft 204 kts 159°
2026-04-18 03:58 -13.74431 -76.21021 8992 ft 204 kts 152°
2026-04-18 03:59 -13.75576 -76.20168 9008 ft 204 kts 141°
2026-04-18 03:59 -13.76653 -76.19218 8999 ft 204 kts 139°
2026-04-18 03:59 -13.77722 -76.18256 8998 ft 204 kts 140°
2026-04-18 03:59 -13.78823 -76.17333 8998 ft 204 kts 142°
2026-04-18 04:00 -13.79953 -76.16444 8996 ft 204 kts 143°
2026-04-18 04:00 -13.81091 -76.15572 8998 ft 204 kts 143°
2026-04-18 04:00 -13.82224 -76.14695 8999 ft 203 kts 143°
2026-04-18 04:00 -13.83340 -76.13811 9000 ft 203 kts 142°
2026-04-18 04:01 -13.84454 -76.12916 9000 ft 204 kts 142°
2026-04-18 04:01 -13.85575 -76.12024 8997 ft 204 kts 143°
2026-04-18 04:01 -13.86702 -76.11138 8990 ft 204 kts 143°
2026-04-18 04:01 -13.87831 -76.10257 8998 ft 204 kts 143°
2026-04-18 04:02 -13.88958 -76.09371 8995 ft 204 kts 143°
2026-04-18 04:02 -13.90080 -76.08482 8997 ft 204 kts 142°
2026-04-18 04:02 -13.91202 -76.07592 8996 ft 204 kts 143°
2026-04-18 04:02 -13.92326 -76.06702 9000 ft 204 kts 143°
2026-04-18 04:03 -13.93436 -76.05828 9001 ft 204 kts 143°
2026-04-18 04:03 -13.94562 -76.04941 9000 ft 204 kts 143°
2026-04-18 04:03 -13.95686 -76.04053 9002 ft 204 kts 143°
2026-04-18 04:03 -13.96809 -76.03165 9002 ft 204 kts 143°
2026-04-18 04:04 -13.97933 -76.02276 9002 ft 204 kts 143°
2026-04-18 04:04 -13.99058 -76.01388 9002 ft 204 kts 143°
2026-04-18 04:04 -14.00182 -76.00500 9004 ft 204 kts 143°
2026-04-18 04:04 -14.01306 -75.99611 9004 ft 204 kts 143°
2026-04-18 04:05 -14.02429 -75.98724 9004 ft 204 kts 143°
2026-04-18 04:05 -14.03553 -75.97835 9004 ft 204 kts 143°
2026-04-18 04:05 -14.04678 -75.96945 9004 ft 204 kts 143°
2026-04-18 04:05 -14.05803 -75.96056 9005 ft 204 kts 143°
2026-04-18 04:06 -14.06928 -75.95166 9002 ft 204 kts 143°
2026-04-18 04:06 -14.08054 -75.94276 9004 ft 204 kts 143°
2026-04-18 04:06 -14.09177 -75.93386 9007 ft 204 kts 143°
2026-04-18 04:06 -14.10302 -75.92497 9015 ft 204 kts 143°
2026-04-18 04:07 -14.11428 -75.91607 9013 ft 204 kts 143°
2026-04-18 04:07 -14.12553 -75.90716 9012 ft 204 kts 143°
2026-04-18 04:07 -14.13680 -75.89824 9012 ft 204 kts 143°
2026-04-18 04:07 -14.14805 -75.88933 9012 ft 204 kts 143°
2026-04-18 04:08 -14.15928 -75.88045 9015 ft 203 kts 143°
2026-04-18 04:08 -14.17034 -75.87171 9015 ft 203 kts 142°
2026-04-18 04:08 -14.18157 -75.86279 9016 ft 203 kts 142°
2026-04-18 04:08 -14.19276 -75.85391 9015 ft 203 kts 142°
2026-04-18 04:09 -14.20400 -75.84501 9014 ft 204 kts 142°
2026-04-18 04:09 -14.21526 -75.83610 9014 ft 204 kts 142°
2026-04-18 04:09 -14.22648 -75.82722 9015 ft 204 kts 142°
2026-04-18 04:09 -14.23766 -75.81835 9014 ft 203 kts 142°
2026-04-18 04:10 -14.24890 -75.80946 9013 ft 204 kts 142°
2026-04-18 04:10 -14.26007 -75.80060 9011 ft 203 kts 142°
2026-04-18 04:10 -14.27125 -75.79173 9011 ft 202 kts 142°
2026-04-18 04:10 -14.28239 -75.78289 9027 ft 203 kts 142°
2026-04-18 04:11 -14.29362 -75.77398 9022 ft 204 kts 142°
2026-04-18 04:11 -14.30490 -75.76504 9020 ft 204 kts 143°
2026-04-18 04:11 -14.31618 -75.75612 9020 ft 204 kts 142°
2026-04-18 04:11 -14.32745 -75.74719 9020 ft 205 kts 142°
2026-04-18 04:12 -14.33874 -75.73822 9021 ft 205 kts 142°
2026-04-18 04:12 -14.34634 -75.73217 9021 ft 205 kts 142°
2026-04-18 04:12 -14.35762 -75.72322 9020 ft 204 kts 142°
2026-04-18 04:12 -14.36874 -75.71440 9021 ft 205 kts 142°
2026-04-18 04:13 -14.38002 -75.70546 9021 ft 204 kts 142°
2026-04-18 04:13 -14.39127 -75.69653 9021 ft 204 kts 142°
2026-04-18 04:13 -14.40255 -75.68758 9020 ft 204 kts 142°
2026-04-18 04:13 -14.41381 -75.67863 9020 ft 205 kts 142°
2026-04-18 04:14 -14.42507 -75.66968 9021 ft 204 kts 142°
2026-04-18 04:14 -14.43634 -75.66073 9022 ft 204 kts 142°
2026-04-18 04:14 -14.44761 -75.65178 9019 ft 205 kts 142°
2026-04-18 04:14 -14.45888 -75.64283 9021 ft 205 kts 142°
2026-04-18 04:15 -14.47016 -75.63387 9025 ft 204 kts 142°
2026-04-18 04:15 -14.48142 -75.62491 9026 ft 205 kts 142°
2026-04-18 04:15 -14.49270 -75.61594 9024 ft 204 kts 142°
2026-04-18 04:15 -14.50392 -75.60701 9020 ft 203 kts 143°
2026-04-18 04:16 -14.51512 -75.59813 9020 ft 203 kts 143°
2026-04-18 04:16 -14.52633 -75.58925 9020 ft 203 kts 143°
2026-04-18 04:16 -14.53754 -75.58034 9020 ft 203 kts 142°
2026-04-18 04:16 -14.54872 -75.57141 9020 ft 203 kts 143°
2026-04-18 04:17 -14.55994 -75.56248 9019 ft 204 kts 143°
2026-04-18 04:17 -14.57116 -75.55356 9021 ft 203 kts 142°
2026-04-18 04:17 -14.58236 -75.54465 9020 ft 203 kts 143°
2026-04-18 04:17 -14.59356 -75.53574 9020 ft 203 kts 143°
2026-04-18 04:18 -14.60478 -75.52684 9024 ft 204 kts 143°
2026-04-18 04:18 -14.61597 -75.51792 9023 ft 203 kts 142°
2026-04-18 04:18 -14.62716 -75.50900 9024 ft 203 kts 142°
2026-04-18 04:18 -14.63833 -75.50010 9023 ft 203 kts 143°
2026-04-18 04:19 -14.64954 -75.49118 9025 ft 204 kts 143°
2026-04-18 04:19 -14.66073 -75.48227 9027 ft 203 kts 143°
2026-04-18 04:19 -14.67193 -75.47336 9026 ft 203 kts 143°
2026-04-18 04:19 -14.68315 -75.46443 9025 ft 204 kts 143°
2026-04-18 04:20 -14.69437 -75.45549 9022 ft 203 kts 142°
2026-04-18 04:20 -14.70554 -75.44656 9025 ft 203 kts 143°
2026-04-18 04:20 -14.71676 -75.43764 9023 ft 204 kts 143°
2026-04-18 04:20 -14.72798 -75.42871 9023 ft 203 kts 143°
2026-04-18 04:21 -14.73920 -75.41977 9024 ft 204 kts 142°
2026-04-18 04:21 -14.75045 -75.41081 9026 ft 205 kts 142°
2026-04-18 04:21 -14.76171 -75.40180 9027 ft 205 kts 142°
2026-04-18 04:21 -14.77296 -75.39282 9026 ft 205 kts 142°
2026-04-18 04:22 -14.78409 -75.38394 9022 ft 205 kts 142°
2026-04-18 04:22 -14.79537 -75.37496 9024 ft 205 kts 142°
2026-04-18 04:22 -14.80667 -75.36597 9022 ft 205 kts 142°
2026-04-18 04:22 -14.81795 -75.35696 9022 ft 205 kts 142°
2026-04-18 04:23 -14.82924 -75.34794 9025 ft 205 kts 142°
2026-04-18 04:23 -14.84050 -75.33894 9025 ft 205 kts 142°
2026-04-18 04:23 -14.85180 -75.32993 9026 ft 205 kts 142°
2026-04-18 04:23 -14.86308 -75.32094 9026 ft 205 kts 142°
2026-04-18 04:24 -14.87437 -75.31193 9025 ft 205 kts 142°
2026-04-18 04:24 -14.88564 -75.30292 9028 ft 205 kts 142°
2026-04-18 04:24 -14.89692 -75.29392 9029 ft 205 kts 142°
2026-04-18 04:24 -14.90821 -75.28490 9029 ft 205 kts 142°
2026-04-18 04:25 -14.91950 -75.27588 9029 ft 205 kts 142°
2026-04-18 04:25 -14.93080 -75.26685 9029 ft 205 kts 142°
2026-04-18 04:25 -14.94208 -75.25784 9028 ft 205 kts 142°
2026-04-18 04:25 -14.95337 -75.24883 9028 ft 205 kts 142°
2026-04-18 04:26 -14.96465 -75.23980 9029 ft 205 kts 142°
2026-04-18 04:26 -14.97593 -75.23078 9028 ft 205 kts 142°
2026-04-18 04:26 -14.98721 -75.22177 9028 ft 205 kts 142°
2026-04-18 04:26 -14.99850 -75.21274 9029 ft 205 kts 142°
2026-04-18 04:27 -15.00978 -75.20372 9036 ft 205 kts 142°
2026-04-18 04:27 -15.02108 -75.19470 9034 ft 205 kts 142°
2026-04-18 04:27 -15.03236 -75.18566 9038 ft 205 kts 142°
2026-04-18 04:27 -15.04364 -75.17664 9036 ft 205 kts 142°
2026-04-18 04:28 -15.05492 -75.16762 9040 ft 205 kts 142°
2026-04-18 04:28 -15.06621 -75.15858 9039 ft 205 kts 142°
2026-04-18 04:28 -15.07749 -75.14955 9039 ft 205 kts 142°
2026-04-18 04:28 -15.08878 -75.14052 9040 ft 205 kts 142°
2026-04-18 04:29 -15.10005 -75.13149 9036 ft 205 kts 142°
2026-04-18 04:29 -15.11132 -75.12247 9036 ft 205 kts 142°
2026-04-18 04:29 -15.12261 -75.11343 9036 ft 205 kts 142°
2026-04-18 04:29 -15.13372 -75.10453 9038 ft 205 kts 142°
2026-04-18 04:30 -15.14499 -75.09551 9035 ft 204 kts 142°
2026-04-18 04:30 -15.15620 -75.08653 9036 ft 204 kts 142°
2026-04-18 04:30 -15.16741 -75.07755 9037 ft 204 kts 142°
2026-04-18 04:30 -15.17861 -75.06859 9042 ft 204 kts 142°
2026-04-18 04:31 -15.18983 -75.05958 9048 ft 205 kts 142°
2026-04-18 04:31 -15.20110 -75.05054 9042 ft 205 kts 142°
2026-04-18 04:31 -15.21236 -75.04152 9045 ft 205 kts 142°
2026-04-18 04:31 -15.22363 -75.03248 9045 ft 205 kts 142°
2026-04-18 04:32 -15.23489 -75.02346 9045 ft 205 kts 142°
2026-04-18 04:32 -15.24615 -75.01443 9045 ft 205 kts 142°
2026-04-18 04:32 -15.25743 -75.00538 9046 ft 205 kts 142°
2026-04-18 04:32 -15.26869 -74.99635 9045 ft 205 kts 142°
2026-04-18 04:33 -15.27994 -74.98731 9037 ft 205 kts 142°
2026-04-18 04:33 -15.29122 -74.97826 9036 ft 205 kts 142°
2026-04-18 04:33 -15.30252 -74.96920 8997 ft 207 kts 142°
2026-04-18 04:33 -15.31386 -74.96010 9027 ft 205 kts 142°
2026-04-18 04:34 -15.32509 -74.95108 9039 ft 204 kts 142°
2026-04-18 04:34 -15.33632 -74.94206 9037 ft 204 kts 142°
2026-04-18 04:34 -15.34758 -74.93303 9037 ft 205 kts 142°
2026-04-18 04:34 -15.35881 -74.92400 9037 ft 204 kts 142°
2026-04-18 04:35 -15.37007 -74.91497 9037 ft 205 kts 142°
2026-04-18 04:35 -15.38132 -74.90592 9037 ft 205 kts 142°
2026-04-18 04:35 -15.39257 -74.89689 9036 ft 205 kts 142°
2026-04-18 04:35 -15.40384 -74.88783 9028 ft 205 kts 142°
2026-04-18 04:36 -15.41496 -74.87890 9028 ft 205 kts 142°
2026-04-18 04:36 -15.42621 -74.86985 9029 ft 205 kts 142°
2026-04-18 04:36 -15.43749 -74.86079 9028 ft 205 kts 142°
2026-04-18 04:36 -15.44874 -74.85174 9029 ft 205 kts 142°
2026-04-18 04:37 -15.45999 -74.84268 9031 ft 205 kts 142°
2026-04-18 04:37 -15.47124 -74.83364 9029 ft 204 kts 142°
2026-04-18 04:37 -15.48246 -74.82462 9030 ft 204 kts 142°
2026-04-18 04:37 -15.49367 -74.81561 9030 ft 204 kts 142°
2026-04-18 04:38 -15.50488 -74.80659 9028 ft 204 kts 142°
2026-04-18 04:38 -15.51607 -74.79757 9029 ft 204 kts 142°
2026-04-18 04:38 -15.52726 -74.78856 9030 ft 204 kts 142°
2026-04-18 04:38 -15.53847 -74.77955 9025 ft 204 kts 142°
2026-04-18 04:39 -15.54968 -74.77054 9029 ft 204 kts 142°
2026-04-18 04:39 -15.56088 -74.76153 9028 ft 204 kts 142°
2026-04-18 04:39 -15.57208 -74.75249 9028 ft 204 kts 142°
2026-04-18 04:39 -15.58328 -74.74346 9028 ft 204 kts 142°
2026-04-18 04:40 -15.59448 -74.73445 9025 ft 204 kts 142°
2026-04-18 04:40 -15.60569 -74.72542 9026 ft 204 kts 142°
2026-04-18 04:40 -15.61688 -74.71640 9026 ft 204 kts 142°
2026-04-18 04:40 -15.62809 -74.70737 9025 ft 204 kts 142°
2026-04-18 04:41 -15.63929 -74.69834 9025 ft 204 kts 142°
2026-04-18 04:41 -15.65049 -74.68932 9024 ft 204 kts 142°
2026-04-18 04:41 -15.66169 -74.68028 9013 ft 204 kts 142°
2026-04-18 04:41 -15.67289 -74.67126 9017 ft 204 kts 142°
2026-04-18 04:42 -15.68408 -74.66223 9020 ft 204 kts 142°
2026-04-18 04:42 -15.69529 -74.65319 9020 ft 204 kts 142°
2026-04-18 04:42 -15.70649 -74.64416 9021 ft 204 kts 142°
2026-04-18 04:42 -15.71769 -74.63513 9023 ft 204 kts 142°
2026-04-18 04:43 -15.72889 -74.62608 9021 ft 204 kts 142°
2026-04-18 04:43 -15.74009 -74.61704 9020 ft 204 kts 142°
2026-04-18 04:43 -15.75128 -74.60801 9020 ft 204 kts 142°
2026-04-18 04:43 -15.76250 -74.59897 9019 ft 204 kts 142°
2026-04-18 04:44 -15.77369 -74.58993 9023 ft 204 kts 142°
2026-04-18 04:44 -15.78489 -74.58088 9023 ft 204 kts 142°
2026-04-18 04:44 -15.79606 -74.57184 9018 ft 203 kts 142°
2026-04-18 04:44 -15.80725 -74.56281 9018 ft 204 kts 142°
2026-04-18 04:45 -15.81845 -74.55378 9020 ft 203 kts 143°
2026-04-18 04:45 -15.82964 -74.54476 9021 ft 204 kts 142°
2026-04-18 04:45 -15.84086 -74.53570 9020 ft 205 kts 142°
2026-04-18 04:45 -15.85211 -74.52660 9021 ft 205 kts 142°
2026-04-18 04:46 -15.86312 -74.51764 9021 ft 203 kts 142°
2026-04-18 04:46 -15.87452 -74.50845 8990 ft 206 kts 142°
2026-04-18 04:46 -15.88576 -74.49938 9004 ft 204 kts 142°
2026-04-18 04:46 -15.89676 -74.49048 9002 ft 203 kts 142°
2026-04-18 04:47 -15.90806 -74.48136 9002 ft 204 kts 143°
2026-04-18 04:47 -15.91926 -74.47232 8992 ft 204 kts 142°
2026-04-18 04:47 -15.93029 -74.46338 8990 ft 204 kts 142°
2026-04-18 04:47 -15.94165 -74.45415 8971 ft 206 kts 142°
2026-04-18 04:48 -15.95276 -74.44516 8971 ft 205 kts 142°
2026-04-18 04:48 -15.96397 -74.43610 8983 ft 204 kts 143°
2026-04-18 04:48 -15.97517 -74.42705 8974 ft 204 kts 142°
2026-04-18 04:48 -15.98637 -74.41800 8980 ft 204 kts 142°
2026-04-18 04:49 -15.99754 -74.40896 8988 ft 203 kts 142°
2026-04-18 04:49 -16.00865 -74.39993 8991 ft 203 kts 142°
2026-04-18 04:49 -16.01975 -74.39092 8986 ft 202 kts 143°
2026-04-18 04:49 -16.03095 -74.38188 8979 ft 205 kts 142°
2026-04-18 04:50 -16.04214 -74.37280 8975 ft 203 kts 142°
2026-04-18 04:50 -16.05330 -74.36378 8990 ft 203 kts 143°
2026-04-18 04:50 -16.06452 -74.35473 8992 ft 205 kts 142°
2026-04-18 04:50 -16.07577 -74.34560 8992 ft 205 kts 142°
2026-04-18 04:51 -16.08699 -74.33643 8987 ft 205 kts 142°
2026-04-18 04:51 -16.09823 -74.32728 8980 ft 206 kts 142°
2026-04-18 04:51 -16.10951 -74.31816 8989 ft 205 kts 142°
2026-04-18 04:51 -16.12080 -74.30904 8987 ft 206 kts 142°
2026-04-18 04:52 -16.13214 -74.29989 8992 ft 206 kts 142°
2026-04-18 04:52 -16.14343 -74.29073 8991 ft 206 kts 142°
2026-04-18 04:52 -16.15472 -74.28154 8988 ft 206 kts 142°
2026-04-18 04:52 -16.16601 -74.27234 8991 ft 206 kts 142°
2026-04-18 04:53 -16.17734 -74.26315 8981 ft 207 kts 142°
2026-04-18 04:53 -16.18869 -74.25398 8988 ft 207 kts 142°
2026-04-18 04:53 -16.20001 -74.24477 8980 ft 206 kts 142°
2026-04-18 04:53 -16.21132 -74.23560 8989 ft 206 kts 142°
2026-04-18 04:54 -16.22265 -74.22642 8985 ft 206 kts 142°
2026-04-18 04:54 -16.23392 -74.21722 8983 ft 206 kts 142°
2026-04-18 04:54 -16.24520 -74.20805 8977 ft 206 kts 142°
2026-04-18 04:54 -16.25651 -74.19889 8985 ft 206 kts 142°
2026-04-18 04:55 -16.26784 -74.18970 8981 ft 206 kts 142°
2026-04-18 04:55 -16.27914 -74.18050 8986 ft 206 kts 142°
2026-04-18 04:55 -16.29047 -74.17131 8983 ft 207 kts 142°
2026-04-18 04:56 -16.31299 -74.15296 8954 ft 207 kts 142°
2026-04-18 04:56 -16.32452 -74.14357 8944 ft 208 kts 142°
2026-04-18 04:56 -16.33591 -74.13432 8942 ft 208 kts 142°
2026-04-18 04:56 -16.34730 -74.12508 8934 ft 207 kts 142°
2026-04-18 04:57 -16.35868 -74.11584 8927 ft 207 kts 142°
2026-04-18 04:57 -16.37007 -74.10659 8921 ft 208 kts 142°
2026-04-18 04:57 -16.38146 -74.09731 8916 ft 208 kts 142°
2026-04-18 04:57 -16.39284 -74.08799 8902 ft 208 kts 142°
2026-04-18 04:58 -16.40430 -74.07868 8884 ft 209 kts 142°
2026-04-18 04:58 -16.41562 -74.06948 8861 ft 210 kts 142°
2026-04-18 04:58 -16.42712 -74.06009 8834 ft 210 kts 142°
2026-04-18 04:58 -16.43870 -74.05069 8804 ft 212 kts 142°
2026-04-18 04:59 -16.45033 -74.04124 8779 ft 212 kts 142°
2026-04-18 04:59 -16.46192 -74.03178 8754 ft 212 kts 142°
2026-04-18 04:59 -16.47356 -74.02226 8737 ft 212 kts 142°
2026-04-18 04:59 -16.48520 -74.01279 8729 ft 212 kts 142°
2026-04-18 05:00 -16.49304 -74.00641 8709 ft 212 kts 142°
2026-04-18 05:00 -16.50844 -73.99388 8684 ft 212 kts 142°
2026-04-18 05:00 -16.51628 -73.98748 8663 ft 212 kts 142°
2026-04-18 05:00 -16.52771 -73.97813 8667 ft 211 kts 142°
2026-04-18 05:01 -16.53927 -73.96869 8667 ft 211 kts 142°
2026-04-18 05:01 -16.55081 -73.95929 8681 ft 210 kts 142°
2026-04-18 05:01 -16.56230 -73.94993 8685 ft 210 kts 142°
2026-04-18 05:01 -16.57376 -73.94056 8691 ft 209 kts 142°
2026-04-18 05:02 -16.58520 -73.93124 8700 ft 209 kts 142°
2026-04-18 05:02 -16.59664 -73.92191 8708 ft 208 kts 142°
2026-04-18 05:02 -16.60804 -73.91257 8710 ft 209 kts 142°
2026-04-18 05:02 -16.61946 -73.90324 8711 ft 209 kts 142°
2026-04-18 05:03 -16.63089 -73.89394 8729 ft 208 kts 142°
2026-04-18 05:03 -16.64227 -73.88466 8738 ft 208 kts 142°
2026-04-18 05:03 -16.65364 -73.87533 8751 ft 208 kts 142°
2026-04-18 05:03 -16.66498 -73.86605 8770 ft 207 kts 142°
2026-04-18 05:04 -16.67632 -73.85679 8786 ft 207 kts 142°
2026-04-18 05:04 -16.68764 -73.84752 8802 ft 207 kts 142°
2026-04-18 05:04 -16.69896 -73.83828 8825 ft 206 kts 142°
2026-04-18 05:04 -16.71027 -73.82905 8822 ft 207 kts 142°
2026-04-18 05:05 -16.72161 -73.81976 8834 ft 207 kts 142°
2026-04-18 05:05 -16.73294 -73.81048 8845 ft 207 kts 142°
2026-04-18 05:05 -16.74426 -73.80125 8865 ft 207 kts 142°
2026-04-18 05:05 -16.75562 -73.79194 8872 ft 208 kts 142°
2026-04-18 05:06 -16.76700 -73.78260 8882 ft 209 kts 142°
2026-04-18 05:06 -16.77843 -73.77324 8884 ft 209 kts 142°
2026-04-18 05:06 -16.78986 -73.76390 8893 ft 209 kts 142°
2026-04-18 05:06 -16.80129 -73.75457 8903 ft 209 kts 142°
2026-04-18 05:07 -16.81274 -73.74519 8898 ft 209 kts 142°
2026-04-18 05:07 -16.82416 -73.73582 8909 ft 209 kts 142°
2026-04-18 05:07 -16.83559 -73.72646 8912 ft 209 kts 142°
2026-04-18 05:07 -16.84704 -73.71705 8898 ft 210 kts 142°
2026-04-18 05:08 -16.85850 -73.70766 8905 ft 209 kts 142°
2026-04-18 05:08 -16.86997 -73.69826 8891 ft 210 kts 142°
2026-04-18 05:08 -16.88149 -73.68883 8891 ft 210 kts 142°
2026-04-18 05:08 -16.89299 -73.67944 8893 ft 210 kts 142°
2026-04-18 05:09 -16.90447 -73.67002 8888 ft 211 kts 142°
2026-04-18 05:09 -16.91585 -73.66063 8878 ft 211 kts 142°
2026-04-18 05:09 -16.92742 -73.65114 8866 ft 211 kts 142°
2026-04-18 05:09 -16.93900 -73.64170 8870 ft 211 kts 142°
2026-04-18 05:10 -16.95052 -73.63227 8866 ft 210 kts 142°
2026-04-18 05:10 -16.96205 -73.62277 8826 ft 212 kts 142°
2026-04-18 05:10 -16.97381 -73.61308 8797 ft 213 kts 142°
2026-04-18 05:10 -16.98530 -73.60364 8772 ft 213 kts 142°
2026-04-18 05:11 -16.99699 -73.59406 8751 ft 213 kts 142°
2026-04-18 05:11 -17.00869 -73.58447 8710 ft 214 kts 142°
2026-04-18 05:11 -17.02044 -73.57483 8659 ft 216 kts 142°
2026-04-18 05:11 -17.03225 -73.56513 8618 ft 216 kts 142°
2026-04-18 05:12 -17.04395 -73.55550 8667 ft 212 kts 142°
2026-04-18 05:12 -17.05546 -73.54603 8708 ft 210 kts 142°
2026-04-18 05:12 -17.06693 -73.53659 8729 ft 210 kts 142°
2026-04-18 05:12 -17.07839 -73.52719 8753 ft 209 kts 142°
2026-04-18 05:13 -17.08983 -73.51781 8775 ft 209 kts 142°
2026-04-18 05:13 -17.10128 -73.50839 8792 ft 210 kts 142°
2026-04-18 05:13 -17.11273 -73.49896 8808 ft 209 kts 142°
2026-04-18 05:13 -17.12416 -73.48955 8822 ft 210 kts 142°
2026-04-18 05:14 -17.13564 -73.48011 8835 ft 209 kts 142°
2026-04-18 05:14 -17.14709 -73.47069 8853 ft 210 kts 142°
2026-04-18 05:14 -17.15854 -73.46127 8875 ft 209 kts 142°
2026-04-18 05:14 -17.16994 -73.45190 8916 ft 208 kts 142°
2026-04-18 05:15 -17.18125 -73.44258 8984 ft 206 kts 142°
2026-04-18 05:15 -17.19252 -73.43329 8987 ft 207 kts 142°
2026-04-18 05:15 -17.20390 -73.42394 8978 ft 208 kts 142°
2026-04-18 05:15 -17.21531 -73.41452 8981 ft 210 kts 142°
2026-04-18 05:16 -17.22677 -73.40509 8981 ft 210 kts 142°
2026-04-18 05:16 -17.23838 -73.39555 8927 ft 213 kts 142°
2026-04-18 05:16 -17.24992 -73.38603 8976 ft 211 kts 142°
2026-04-18 05:16 -17.26143 -73.37654 8979 ft 210 kts 142°
2026-04-18 05:17 -17.27292 -73.36708 8981 ft 210 kts 142°
2026-04-18 05:17 -17.28436 -73.35763 8975 ft 211 kts 142°
2026-04-18 05:17 -17.29599 -73.34803 8892 ft 215 kts 142°
2026-04-18 05:17 -17.30767 -73.33841 8922 ft 212 kts 142°
2026-04-18 05:18 -17.31919 -73.32891 8961 ft 210 kts 142°
2026-04-18 05:18 -17.33066 -73.31943 8980 ft 210 kts 142°
2026-04-18 05:18 -17.34212 -73.31001 8971 ft 211 kts 142°
2026-04-18 05:18 -17.35378 -73.30039 8907 ft 214 kts 142°
2026-04-18 05:19 -17.36540 -73.29085 8907 ft 212 kts 142°
2026-04-18 05:19 -17.37687 -73.28132 8961 ft 209 kts 141°
2026-04-18 05:19 -17.38826 -73.27184 8984 ft 209 kts 142°
2026-04-18 05:19 -17.39970 -73.26240 8975 ft 211 kts 142°
2026-04-18 05:20 -17.41120 -73.25297 8963 ft 211 kts 142°
2026-04-18 05:20 -17.42270 -73.24353 8917 ft 213 kts 142°
2026-04-18 05:20 -17.43423 -73.23398 8977 ft 210 kts 142°
2026-04-18 05:20 -17.44566 -73.22448 8983 ft 210 kts 142°
2026-04-18 05:21 -17.45716 -73.21497 8977 ft 211 kts 142°
2026-04-18 05:21 -17.46868 -73.20546 8976 ft 211 kts 142°
2026-04-18 05:21 -17.48020 -73.19596 8981 ft 211 kts 142°
2026-04-18 05:21 -17.49174 -73.18642 8979 ft 211 kts 142°
2026-04-18 05:22 -17.50324 -73.17690 8975 ft 211 kts 142°
2026-04-18 05:22 -17.51475 -73.16736 8974 ft 211 kts 142°
2026-04-18 05:22 -17.52627 -73.15785 8969 ft 211 kts 142°
2026-04-18 05:22 -17.53781 -73.14831 8931 ft 213 kts 142°
2026-04-18 05:23 -17.54940 -73.13872 8924 ft 214 kts 142°
2026-04-18 05:23 -17.56120 -73.12894 8847 ft 216 kts 142°
2026-04-18 05:23 -17.57306 -73.11912 8789 ft 218 kts 142°
2026-04-18 05:23 -17.58486 -73.10934 8837 ft 214 kts 142°
2026-04-18 05:24 -17.59644 -73.09976 8898 ft 210 kts 142°
2026-04-18 05:24 -17.60786 -73.09032 8938 ft 209 kts 142°
2026-04-18 05:24 -17.61932 -73.08082 8918 ft 211 kts 142°
2026-04-18 05:24 -17.63081 -73.07130 8909 ft 211 kts 142°
2026-04-18 05:25 -17.64240 -73.06168 8829 ft 215 kts 142°
2026-04-18 05:25 -17.65415 -73.05194 8821 ft 215 kts 142°
2026-04-18 05:25 -17.66586 -73.04223 8835 ft 213 kts 142°
2026-04-18 05:25 -17.67741 -73.03267 8893 ft 210 kts 142°
2026-04-18 05:26 -17.68887 -73.02315 8920 ft 211 kts 142°
2026-04-18 05:26 -17.70044 -73.01354 8921 ft 213 kts 142°
2026-04-18 05:26 -17.71208 -73.00394 8926 ft 212 kts 142°
2026-04-18 05:26 -17.72366 -72.99438 8924 ft 212 kts 142°
2026-04-18 05:27 -17.73523 -72.98473 8920 ft 213 kts 142°
2026-04-18 05:27 -17.74683 -72.97507 8921 ft 212 kts 142°
2026-04-18 05:27 -17.75840 -72.96545 8887 ft 215 kts 142°
2026-04-18 05:27 -17.77012 -72.95573 8888 ft 214 kts 142°
2026-04-18 05:28 -17.78176 -72.94610 8918 ft 212 kts 142°
2026-04-18 05:28 -17.79330 -72.93657 8919 ft 212 kts 142°
2026-04-18 05:28 -17.80486 -72.92691 8897 ft 213 kts 141°
2026-04-18 05:28 -17.81645 -72.91722 8886 ft 214 kts 142°
2026-04-18 05:29 -17.82811 -72.90754 8889 ft 212 kts 142°
2026-04-18 05:29 -17.83967 -72.89798 8922 ft 212 kts 142°
2026-04-18 05:29 -17.85126 -72.88837 8887 ft 213 kts 142°
2026-04-18 05:29 -17.86283 -72.87874 8910 ft 211 kts 142°
2026-04-18 05:30 -17.87415 -72.86930 8932 ft 211 kts 142°
2026-04-18 05:30 -17.88569 -72.85969 8923 ft 212 kts 142°
2026-04-18 05:30 -17.89725 -72.85009 8923 ft 212 kts 142°
2026-04-18 05:30 -17.90885 -72.84045 8924 ft 213 kts 142°
2026-04-18 05:31 -17.92049 -72.83078 8917 ft 213 kts 142°
2026-04-18 05:31 -17.93213 -72.82111 8917 ft 213 kts 142°
2026-04-18 05:31 -17.94373 -72.81144 8909 ft 213 kts 141°
2026-04-18 05:31 -17.95531 -72.80177 8922 ft 212 kts 142°
2026-04-18 05:32 -17.96687 -72.79214 8927 ft 213 kts 142°
2026-04-18 05:32 -17.97846 -72.78250 8925 ft 212 kts 142°
2026-04-18 05:32 -17.99001 -72.77290 8924 ft 213 kts 142°
2026-04-18 05:32 -18.00164 -72.76322 8910 ft 213 kts 142°
2026-04-18 05:33 -18.01326 -72.75353 8907 ft 213 kts 142°
2026-04-18 05:33 -18.02486 -72.74384 8914 ft 213 kts 142°
2026-04-18 05:33 -18.03650 -72.73414 8912 ft 213 kts 142°
2026-04-18 05:33 -18.04807 -72.72451 8904 ft 213 kts 142°
2026-04-18 05:34 -18.05976 -72.71478 8896 ft 213 kts 142°
2026-04-18 05:34 -18.07131 -72.70513 8928 ft 211 kts 142°
2026-04-18 05:34 -18.08284 -72.69551 8916 ft 212 kts 142°
2026-04-18 05:34 -18.09438 -72.68588 8919 ft 212 kts 142°
2026-04-18 05:35 -18.10598 -72.67620 8911 ft 213 kts 142°
2026-04-18 05:35 -18.11758 -72.66653 8919 ft 212 kts 141°
2026-04-18 05:35 -18.12916 -72.65686 8922 ft 212 kts 142°
2026-04-18 05:35 -18.14076 -72.64718 8924 ft 213 kts 142°
2026-04-18 05:36 -18.15236 -72.63750 8922 ft 213 kts 142°
2026-04-18 05:36 -18.16393 -72.62785 8922 ft 213 kts 142°
2026-04-18 05:36 -18.17552 -72.61816 8926 ft 213 kts 141°
2026-04-18 05:36 -18.18708 -72.60850 8924 ft 212 kts 141°
2026-04-18 05:37 -18.19866 -72.59883 8880 ft 213 kts 142°
2026-04-18 05:37 -18.21020 -72.58919 8918 ft 210 kts 141°
2026-04-18 05:37 -18.22163 -72.57962 8926 ft 210 kts 141°
2026-04-18 05:37 -18.23290 -72.57018 8908 ft 212 kts 141°
2026-04-18 05:38 -18.24453 -72.56047 8895 ft 212 kts 141°
2026-04-18 05:38 -18.25598 -72.55090 8929 ft 210 kts 141°
2026-04-18 05:38 -18.26748 -72.54130 8872 ft 213 kts 141°
2026-04-18 05:38 -18.27911 -72.53157 8880 ft 212 kts 141°
2026-04-18 05:39 -18.29055 -72.52199 8927 ft 210 kts 141°
2026-04-18 05:39 -18.30198 -72.51240 8928 ft 211 kts 141°
2026-04-18 05:39 -18.31347 -72.50279 8925 ft 212 kts 141°
2026-04-18 05:39 -18.32504 -72.49313 8925 ft 212 kts 141°
2026-04-18 05:40 -18.33661 -72.48345 8911 ft 213 kts 141°
2026-04-18 05:40 -18.34819 -72.47374 8906 ft 213 kts 141°
2026-04-18 05:40 -18.35933 -72.46337 8876 ft 214 kts 133°
2026-04-18 05:40 -18.36909 -72.45172 8931 ft 211 kts 131°
2026-04-18 05:41 -18.37876 -72.44008 8921 ft 212 kts 132°
2026-04-18 05:41 -18.38880 -72.42858 8842 ft 216 kts 133°
2026-04-18 05:41 -18.39919 -72.41722 8864 ft 214 kts 134°
2026-04-18 05:41 -18.40945 -72.40606 8919 ft 211 kts 134°
2026-04-18 05:42 -18.41960 -72.39483 8911 ft 212 kts 133°
2026-04-18 05:42 -18.42965 -72.38349 8929 ft 212 kts 133°
2026-04-18 05:42 -18.43969 -72.37214 8925 ft 212 kts 133°
2026-04-18 05:42 -18.44982 -72.36081 8923 ft 212 kts 133°
2026-04-18 05:43 -18.45997 -72.34954 8928 ft 212 kts 133°
2026-04-18 05:43 -18.47012 -72.33829 8924 ft 212 kts 133°
2026-04-18 05:43 -18.48027 -72.32697 8918 ft 213 kts 133°
2026-04-18 05:43 -18.49038 -72.31563 8925 ft 212 kts 133°
2026-04-18 05:44 -18.50049 -72.30430 8922 ft 213 kts 133°
2026-04-18 05:44 -18.51066 -72.29292 8920 ft 213 kts 133°
2026-04-18 05:44 -18.52082 -72.28160 8924 ft 212 kts 133°
2026-04-18 05:44 -18.53098 -72.27027 8924 ft 213 kts 133°
2026-04-18 05:45 -18.54114 -72.25893 8915 ft 213 kts 133°
2026-04-18 05:45 -18.55126 -72.24756 8855 ft 214 kts 133°
2026-04-18 05:45 -18.56144 -72.23614 8865 ft 211 kts 133°
2026-04-18 05:45 -18.57145 -72.22498 8924 ft 208 kts 134°
2026-04-18 05:46 -18.58139 -72.21390 8923 ft 208 kts 133°
2026-04-18 05:46 -18.59135 -72.20275 8923 ft 209 kts 133°
2026-04-18 05:46 -18.60133 -72.19158 8919 ft 210 kts 133°
2026-04-18 05:46 -18.61133 -72.18036 8914 ft 210 kts 133°
2026-04-18 05:47 -18.62137 -72.16911 8908 ft 211 kts 133°
2026-04-18 05:47 -18.62802 -72.16168 8914 ft 210 kts 133°
2026-04-18 05:47 -18.63806 -72.15043 8920 ft 210 kts 133°
2026-04-18 05:47 -18.64809 -72.13921 8923 ft 210 kts 133°
2026-04-18 05:48 -18.65810 -72.12798 8921 ft 210 kts 133°
2026-04-18 05:48 -18.66814 -72.11674 8914 ft 211 kts 133°
2026-04-18 05:48 -18.67819 -72.10548 8922 ft 210 kts 133°
2026-04-18 05:48 -18.68821 -72.09424 8926 ft 210 kts 133°
2026-04-18 05:49 -18.69824 -72.08298 8928 ft 210 kts 133°
2026-04-18 05:49 -18.70828 -72.07173 8927 ft 211 kts 133°
2026-04-18 05:49 -18.71832 -72.06048 8926 ft 211 kts 133°
2026-04-18 05:49 -18.72837 -72.04922 8926 ft 211 kts 133°
2026-04-18 05:50 -18.73840 -72.03795 8926 ft 211 kts 133°
2026-04-18 05:50 -18.74843 -72.02669 8926 ft 211 kts 133°
2026-04-18 05:50 -18.75847 -72.01540 8926 ft 211 kts 133°
2026-04-18 05:50 -18.76851 -72.00414 8926 ft 211 kts 133°
2026-04-18 05:51 -18.77855 -71.99288 8926 ft 211 kts 133°
2026-04-18 05:51 -18.78861 -71.98159 8926 ft 211 kts 133°
2026-04-18 05:51 -18.79866 -71.97030 8925 ft 211 kts 133°
2026-04-18 05:51 -18.80868 -71.95903 8926 ft 211 kts 133°
2026-04-18 05:52 -18.81873 -71.94774 8924 ft 211 kts 133°
2026-04-18 05:52 -18.82876 -71.93646 8925 ft 211 kts 133°
2026-04-18 05:52 -18.83868 -71.92532 8926 ft 211 kts 133°
2026-04-18 05:52 -18.84871 -71.91404 8926 ft 211 kts 133°
2026-04-18 05:53 -18.85870 -71.90278 8933 ft 209 kts 133°
2026-04-18 05:53 -18.86863 -71.89159 8928 ft 208 kts 134°
2026-04-18 05:53 -18.87860 -71.88043 8928 ft 209 kts 134°
2026-04-18 05:53 -18.88853 -71.86928 8928 ft 209 kts 134°
2026-04-18 05:54 -18.89851 -71.85804 8926 ft 210 kts 134°
2026-04-18 05:54 -18.90851 -71.84679 8925 ft 210 kts 134°
2026-04-18 05:54 -18.91849 -71.83552 8926 ft 210 kts 134°
2026-04-18 05:54 -18.92850 -71.82425 8926 ft 210 kts 133°
2026-04-18 05:55 -18.93850 -71.81298 8926 ft 210 kts 134°
2026-04-18 05:55 -18.94849 -71.80171 8926 ft 210 kts 134°
2026-04-18 05:55 -18.95851 -71.79045 8926 ft 210 kts 134°
2026-04-18 05:55 -18.96850 -71.77919 8926 ft 210 kts 134°
2026-04-18 05:56 -18.97851 -71.76794 8926 ft 210 kts 134°
2026-04-18 05:56 -18.98851 -71.75667 8928 ft 210 kts 133°
2026-04-18 05:56 -18.99849 -71.74539 8929 ft 210 kts 133°
2026-04-18 05:56 -19.00849 -71.73411 8929 ft 210 kts 133°
2026-04-18 05:57 -19.02847 -71.71155 8926 ft 210 kts 134°
2026-04-18 05:57 -19.03848 -71.70028 8926 ft 210 kts 134°
2026-04-18 05:57 -19.04847 -71.68901 8925 ft 210 kts 134°
2026-04-18 05:58 -19.05847 -71.67776 8926 ft 210 kts 134°
2026-04-18 05:58 -19.06846 -71.66645 8926 ft 210 kts 133°
2026-04-18 05:58 -19.07831 -71.65532 8926 ft 210 kts 133°
2026-04-18 05:58 -19.08829 -71.64403 8926 ft 210 kts 133°
2026-04-18 05:59 -19.09828 -71.63273 8926 ft 210 kts 134°
2026-04-18 05:59 -19.10829 -71.62146 8925 ft 210 kts 134°
2026-04-18 05:59 -19.11827 -71.61018 8926 ft 210 kts 134°
2026-04-18 05:59 -19.12826 -71.59889 8926 ft 210 kts 134°
2026-04-18 06:00 -19.13826 -71.58761 8925 ft 210 kts 133°
2026-04-18 06:00 -19.14822 -71.57631 8928 ft 210 kts 134°
2026-04-18 06:00 -19.15822 -71.56502 8931 ft 210 kts 133°
2026-04-18 06:00 -19.16819 -71.55371 8931 ft 210 kts 133°
2026-04-18 06:01 -19.17811 -71.54244 8927 ft 210 kts 134°
2026-04-18 06:01 -19.18814 -71.53112 8927 ft 211 kts 134°
2026-04-18 06:01 -19.19819 -71.51980 8926 ft 211 kts 134°
2026-04-18 06:01 -19.20826 -71.50847 8926 ft 211 kts 134°
2026-04-18 06:02 -19.21827 -71.49711 8926 ft 211 kts 134°
2026-04-18 06:02 -19.22828 -71.48572 8926 ft 211 kts 134°
2026-04-18 06:02 -19.23829 -71.47436 8924 ft 211 kts 134°
2026-04-18 06:02 -19.24828 -71.46299 8926 ft 211 kts 134°
2026-04-18 06:03 -19.25832 -71.45166 8926 ft 211 kts 134°
2026-04-18 06:03 -19.26837 -71.44030 8925 ft 211 kts 134°
2026-04-18 06:03 -19.27841 -71.42895 8926 ft 211 kts 134°
2026-04-18 06:03 -19.28845 -71.41762 8926 ft 211 kts 134°
2026-04-18 06:04 -19.29845 -71.40621 8927 ft 211 kts 134°
2026-04-18 06:04 -19.30846 -71.39484 8926 ft 211 kts 134°
2026-04-18 06:04 -19.31846 -71.38346 8926 ft 211 kts 134°
2026-04-18 06:04 -19.32849 -71.37208 8926 ft 211 kts 134°
2026-04-18 06:05 -19.33853 -71.36073 8927 ft 211 kts 134°
2026-04-18 06:05 -19.34856 -71.34935 8926 ft 211 kts 134°
2026-04-18 06:05 -19.35859 -71.33800 8926 ft 211 kts 134°
2026-04-18 06:05 -19.36861 -71.32663 8929 ft 211 kts 134°
2026-04-18 06:06 -19.37862 -71.31523 8924 ft 211 kts 134°
2026-04-18 06:06 -19.38861 -71.30387 8929 ft 211 kts 133°
2026-04-18 06:06 -19.39858 -71.29247 8929 ft 211 kts 134°
2026-04-18 06:06 -19.40860 -71.28111 8931 ft 211 kts 134°
2026-04-18 06:07 -19.41862 -71.26975 8929 ft 211 kts 134°
2026-04-18 06:07 -19.42866 -71.25839 8928 ft 211 kts 134°
2026-04-18 06:07 -19.43854 -71.24718 8929 ft 211 kts 134°
2026-04-18 06:07 -19.44851 -71.23578 8928 ft 211 kts 134°
2026-04-18 06:08 -19.45865 -71.22423 8931 ft 211 kts 134°
2026-04-18 06:08 -19.46853 -71.21299 8931 ft 212 kts 133°
2026-04-18 06:08 -19.47871 -71.20134 8931 ft 213 kts 134°
2026-04-18 06:08 -19.48884 -71.18988 8931 ft 213 kts 134°
2026-04-18 06:09 -19.49882 -71.17852 8930 ft 214 kts 134°
2026-04-18 06:09 -19.50897 -71.16705 8931 ft 213 kts 134°
2026-04-18 06:09 -19.51907 -71.15555 8931 ft 213 kts 134°
2026-04-18 06:09 -19.52913 -71.14402 8931 ft 213 kts 134°
2026-04-18 06:10 -19.53933 -71.13235 8931 ft 213 kts 134°
2026-04-18 06:10 -19.54926 -71.12098 8929 ft 214 kts 134°
2026-04-18 06:10 -19.55939 -71.10952 8929 ft 213 kts 134°
2026-04-18 06:10 -19.56951 -71.09804 8927 ft 214 kts 134°
2026-04-18 06:11 -19.57963 -71.08649 8932 ft 213 kts 134°
2026-04-18 06:11 -19.58973 -71.07502 8931 ft 213 kts 134°
2026-04-18 06:11 -19.59977 -71.06349 8931 ft 213 kts 134°
2026-04-18 06:11 -19.60984 -71.05201 8932 ft 212 kts 134°
2026-04-18 06:12 -19.61987 -71.04051 8931 ft 213 kts 134°
2026-04-18 06:12 -19.62996 -71.02898 8931 ft 213 kts 134°
2026-04-18 06:12 -19.64007 -71.01750 8928 ft 213 kts 134°
2026-04-18 06:12 -19.65018 -71.00600 8931 ft 213 kts 134°
2026-04-18 06:13 -19.66028 -70.99447 8927 ft 213 kts 134°
2026-04-18 06:13 -19.67034 -70.98293 8927 ft 214 kts 134°
2026-04-18 06:13 -19.68043 -70.97139 8918 ft 213 kts 134°
2026-04-18 06:13 -19.69051 -70.95991 8920 ft 212 kts 133°
2026-04-18 06:14 -19.70050 -70.94833 8925 ft 213 kts 130°
2026-04-18 06:14 -19.70736 -70.93449 8928 ft 212 kts 111°
2026-04-18 06:14 -19.71199 -70.91958 8938 ft 214 kts 108°
2026-04-18 06:14 -19.71623 -70.90446 8930 ft 214 kts 107°
2026-04-18 06:15 -19.72033 -70.88928 8929 ft 214 kts 106°
2026-04-18 06:15 -19.72439 -70.87408 8925 ft 214 kts 107°
2026-04-18 06:15 -19.72897 -70.85913 8928 ft 213 kts 110°
2026-04-18 06:15 -19.73411 -70.84441 8934 ft 213 kts 112°
2026-04-18 06:16 -19.73953 -70.82982 8927 ft 213 kts 112°
2026-04-18 06:16 -19.74487 -70.81521 8879 ft 215 kts 111°
2026-04-18 06:16 -19.75009 -70.80036 8908 ft 214 kts 111°
2026-04-18 06:16 -19.75518 -70.78560 8924 ft 213 kts 111°
2026-04-18 06:17 -19.76035 -70.77079 8921 ft 214 kts 111°
2026-04-18 06:17 -19.76562 -70.75609 8933 ft 213 kts 111°
2026-04-18 06:17 -19.77090 -70.74140 8931 ft 213 kts 111°
2026-04-18 06:17 -19.77613 -70.72668 8927 ft 214 kts 111°
2026-04-18 06:18 -19.78129 -70.71190 8927 ft 213 kts 111°
2026-04-18 06:18 -19.78649 -70.69707 8926 ft 214 kts 111°
2026-04-18 06:18 -19.79175 -70.68230 8928 ft 213 kts 111°
2026-04-18 06:18 -19.79700 -70.66757 8931 ft 213 kts 111°
2026-04-18 06:19 -19.80222 -70.65281 8934 ft 213 kts 111°
2026-04-18 06:19 -19.80740 -70.63803 8933 ft 213 kts 111°
2026-04-18 06:19 -19.81260 -70.62325 8932 ft 214 kts 111°
2026-04-18 06:19 -19.81777 -70.60863 8929 ft 214 kts 111°
2026-04-18 06:20 -19.82303 -70.59382 8896 ft 215 kts 111°
2026-04-18 06:20 -19.82826 -70.57906 8920 ft 213 kts 111°
2026-04-18 06:20 -19.83342 -70.56431 8924 ft 213 kts 111°
2026-04-18 06:20 -19.83861 -70.54955 8914 ft 214 kts 111°
2026-04-18 06:21 -19.84383 -70.53478 8922 ft 212 kts 111°
2026-04-18 06:21 -19.84901 -70.52020 8914 ft 211 kts 111°
2026-04-18 06:21 -19.85415 -70.50564 8922 ft 211 kts 111°
2026-04-18 06:21 -19.85924 -70.49106 8925 ft 210 kts 111°
2026-04-18 06:22 -19.86435 -70.47648 8919 ft 211 kts 111°
2026-04-18 06:22 -19.86949 -70.46190 8920 ft 211 kts 111°
2026-04-18 06:22 -19.87467 -70.44731 8893 ft 212 kts 111°
2026-04-18 06:22 -19.87982 -70.43271 8918 ft 210 kts 111°
2026-04-18 06:23 -19.88492 -70.41815 8927 ft 210 kts 111°
2026-04-18 06:23 -19.89003 -70.40353 8883 ft 213 kts 111°
2026-04-18 06:23 -19.89518 -70.38883 8897 ft 211 kts 111°
2026-04-18 06:23 -19.90033 -70.37433 8931 ft 209 kts 111°
2026-04-18 06:24 -19.90545 -70.35981 8933 ft 210 kts 111°
2026-04-18 06:24 -19.91054 -70.34526 8925 ft 210 kts 111°
2026-04-18 06:24 -19.91562 -70.33068 8934 ft 210 kts 111°
2026-04-18 06:24 -19.92072 -70.31617 8932 ft 210 kts 111°
2026-04-18 06:25 -19.92586 -70.30157 8932 ft 211 kts 111°
2026-04-18 06:25 -19.93097 -70.28704 8928 ft 211 kts 111°
2026-04-18 06:25 -19.93612 -70.27240 8932 ft 210 kts 111°
2026-04-18 06:25 -19.94119 -70.25778 8885 ft 213 kts 111°
2026-04-18 06:26 -19.94639 -70.24293 8811 ft 215 kts 111°
2026-04-18 06:26 -19.95163 -70.22807 8738 ft 215 kts 112°
2026-04-18 06:26 -19.95976 -70.21495 8635 ft 215 kts 138°
2026-04-18 06:26 -19.97281 -70.20747 8518 ft 215 kts 166°
2026-04-18 06:27 -19.98774 -70.20643 8407 ft 216 kts 181°
2026-04-18 06:27 -20.00270 -70.20721 8333 ft 215 kts 184°
2026-04-18 06:27 -20.01773 -70.20830 8164 ft 218 kts 184°
2026-04-18 06:27 -20.03289 -70.20878 7984 ft 217 kts 180°
2026-04-18 06:28 -20.04797 -70.20855 7800 ft 216 kts 179°
2026-04-18 06:28 -20.06301 -70.20807 7587 ft 217 kts 179°
2026-04-18 06:28 -20.07808 -70.20767 7385 ft 217 kts 179°
2026-04-18 06:28 -20.09318 -70.20746 7184 ft 217 kts 180°
2026-04-18 06:29 -20.10808 -70.20731 6989 ft 217 kts 180°
2026-04-18 06:29 -20.12318 -70.20708 6805 ft 217 kts 179°
2026-04-18 06:29 -20.13830 -70.20660 6615 ft 217 kts 179°
2026-04-18 06:29 -20.15339 -70.20642 6435 ft 217 kts 180°
2026-04-18 06:30 -20.16846 -70.20633 6235 ft 216 kts 180°
2026-04-18 06:30 -20.18346 -70.20608 6015 ft 215 kts 179°
2026-04-18 06:30 -20.19836 -70.20573 5807 ft 214 kts 179°
2026-04-18 06:30 -20.21323 -70.20540 5589 ft 214 kts 179°
2026-04-18 06:31 -20.22809 -70.20516 5377 ft 214 kts 180°
2026-04-18 06:31 -20.24294 -70.20495 5171 ft 213 kts 180°
2026-04-18 06:31 -20.25779 -70.20466 4972 ft 213 kts 179°
2026-04-18 06:31 -20.27256 -70.20441 4776 ft 211 kts 180°
2026-04-18 06:32 -20.28720 -70.20419 4565 ft 210 kts 180°
2026-04-18 06:32 -20.30178 -70.20394 4332 ft 209 kts 179°
2026-04-18 06:32 -20.31637 -70.20365 4103 ft 210 kts 179°
2026-04-18 06:32 -20.33097 -70.20338 3882 ft 210 kts 179°
2026-04-18 06:33 -20.34539 -70.20149 3661 ft 209 kts 166°
2026-04-18 06:33 -20.35940 -70.19727 3437 ft 210 kts 164°
2026-04-18 06:33 -20.37348 -70.19343 3209 ft 208 kts 167°
2026-04-18 06:33 -20.38745 -70.19042 3048 ft 201 kts 169°
2026-04-18 06:34 -20.40106 -70.18770 2835 ft 197 kts 169°
2026-04-18 06:34 -20.41412 -70.18517 2869 ft 183 kts 169°
2026-04-18 06:34 -20.42634 -70.18230 2633 ft 177 kts 166°
2026-04-18 06:34 -20.43814 -70.17908 2401 ft 171 kts 166°
2026-04-18 06:35 -20.44967 -70.17638 2120 ft 169 kts 174°
2026-04-18 06:35 -20.46110 -70.17678 1941 ft 163 kts 186°
2026-04-18 06:35 -20.47168 -70.17794 1569 ft 143 kts 185°
2026-04-18 06:35 -20.48045 -70.17841 1220 ft 115 kts 181°
2026-04-18 06:36 -20.48824 -70.17876 865 ft 109 kts 181°
2026-04-18 06:36 -20.49555 -70.17909 628 ft 105 kts 182°
2026-04-18 06:36 -20.50270 -70.17945 552 ft 103 kts 182°
2026-04-18 06:36 -20.50980 -70.17983 429 ft 99 kts 185°
2026-04-18 06:37 -20.51646 -70.18020 287 ft 94 kts 183°
2026-04-18 06:37 -20.52288 -70.18056 181 ft 87 kts 184°
2026-04-18 06:37 -20.52778 -70.18085 170 ft 53 kts 184°
2026-04-18 06:37 -20.52991 -70.18099 171 ft 40 kts 182°
2026-04-18 06:38 -20.53227 -70.18111 169 ft 29 kts 183°
2026-04-18 06:38 -20.53402 -70.18120 170 ft 24 kts 181°
2026-04-18 06:38 -20.53530 -70.18126 170 ft 10 kts 171°
2026-04-18 06:38 -20.53566 -70.18074 170 ft 10 kts 94°
2026-04-18 06:39 -20.53568 -70.18024 170 ft 0 kts 92°
2026-04-18 06:40 -20.53568 -70.18023 170 ft 0 kts 92°
2026-04-18 06:44 -20.53569 -70.18021 170 ft 2 kts 92°
2026-04-18 06:44 -20.53571 -70.17959 170 ft 11 kts 94°
2026-04-18 06:44 -20.53576 -70.17881 170 ft 7 kts 94°
2026-04-18 06:45 -20.53613 -70.17853 170 ft 9 kts 185°
2026-04-18 06:45 -20.53630 -70.17854 170 ft 0 kts 181°